Time,TemperatureF,DewpointF,PressureIn,WindDirection,WindDirectionDegrees,WindSpeedMPH,WindSpeedGustMPH,Humidity,HourlyPrecipIn,Conditions,Clouds,dailyrainin,SoftwareType,DateUTC
2013-01-17 00:02:00,10.0,7.0,-100.00,East,95,0.0,0.0,85,0.00,,,-99.99,,2013-01-17 07:02:00,
2013-01-17 00:11:00,10.0,7.0,-100.00,NW,325,0.0,1.0,86,0.00,,,-99.99,,2013-01-17 07:11:00,
2013-01-17 00:22:00,10.0,7.0,-100.00,North,10,1.0,1.0,86,0.00,,,-99.99,,2013-01-17 07:22:00,
2013-01-17 00:32:00,10.0,7.0,-100.00,NW,325,0.0,1.0,87,0.00,,,-99.99,,2013-01-17 07:32:00,
2013-01-17 00:42:00,10.0,7.0,-100.00,NNW,330,0.0,0.0,87,0.00,,,-99.99,,2013-01-17 07:42:00,
2013-01-17 00:52:00,9.0,6.0,-100.00,West,260,1.0,2.0,87,0.00,,,-99.99,,2013-01-17 07:52:00,
2013-01-17 01:02:00,10.0,7.0,-100.00,West,280,0.0,1.0,88,0.00,,,-99.99,,2013-01-17 08:02:00,
2013-01-17 01:11:00,10.0,7.0,-100.00,SSW,210,0.0,1.0,88,0.00,,,-99.99,,2013-01-17 08:11:00,
2013-01-17 01:22:00,9.0,7.0,-100.00,NNE,25,1.0,4.0,88,0.00,,,-99.99,,2013-01-17 08:22:00,
2013-01-17 01:32:00,9.0,6.0,-100.00,South,170,0.0,2.0,89,0.00,,,-99.99,,2013-01-17 08:32:00,
2013-01-17 01:43:00,9.0,7.0,-100.00,North,10,0.0,2.0,89,0.00,,,-99.99,,2013-01-17 08:43:00,
2013-01-17 01:52:00,9.0,6.0,-100.00,WSW,240,0.0,1.0,89,0.00,,,-99.99,,2013-01-17 08:52:00,
2013-01-17 02:02:00,9.0,7.0,-100.00,SE,130,0.0,1.0,89,0.00,,,-99.99,,2013-01-17 09:02:00,
2013-01-17 02:12:00,9.0,6.0,-100.00,ESE,105,1.0,1.0,89,0.00,,,-99.99,,2013-01-17 09:12:00,
2013-01-17 02:22:00,9.0,6.0,-100.00,WNW,300,1.0,3.0,90,0.00,,,-99.99,,2013-01-17 09:22:00,
2013-01-17 02:32:00,8.0,6.0,-100.00,East,90,0.0,2.0,90,0.00,,,-99.99,,2013-01-17 09:32:00,
2013-01-17 02:42:00,9.0,6.0,-100.00,North,355,0.0,2.0,90,0.00,,,-99.99,,2013-01-17 09:42:00,
2013-01-17 02:52:00,8.0,6.0,-100.00,SSW,210,1.0,3.0,90,0.00,,,-99.99,,2013-01-17 09:52:00,
2013-01-17 03:02:00,8.0,6.0,-100.00,SE,140,0.0,2.0,91,0.00,,,-99.99,,2013-01-17 10:02:00,
2013-01-17 03:11:00,8.0,6.0,-100.00,NE,55,0.0,3.0,91,0.00,,,-99.99,,2013-01-17 10:11:00,
2013-01-17 03:22:00,8.0,6.0,-100.00,West,265,0.0,4.0,91,0.00,,,-99.99,,2013-01-17 10:22:00,
2013-01-17 03:32:00,8.0,6.0,-100.00,NNW,340,1.0,1.0,91,0.00,,,-99.99,,2013-01-17 10:32:00,
2013-01-17 03:42:00,7.0,5.0,-100.00,ENE,65,1.0,1.0,91,0.00,,,-99.99,,2013-01-17 10:42:00,
2013-01-17 03:52:00,7.0,5.0,-100.00,NE,55,1.0,1.0,91,0.00,,,-99.99,,2013-01-17 10:52:00,
2013-01-17 04:02:00,7.0,5.0,-100.00,SSW,210,1.0,2.0,91,0.00,,,-99.99,,2013-01-17 11:02:00,
2013-01-17 04:12:00,7.0,5.0,-100.00,SE,145,0.0,1.0,91,0.00,,,-99.99,,2013-01-17 11:12:00,
2013-01-17 04:22:00,7.0,5.0,-100.00,SE,145,0.0,1.0,91,0.00,,,-99.99,,2013-01-17 11:22:00,
2013-01-17 04:32:00,7.0,5.0,-100.00,SE,125,0.0,1.0,91,0.00,,,-99.99,,2013-01-17 11:32:00,
2013-01-17 04:42:00,7.0,5.0,-100.00,SE,125,0.0,0.0,91,0.00,,,-99.99,,2013-01-17 11:42:00,
2013-01-17 04:52:00,7.0,5.0,-100.00,SSW,200,1.0,3.0,91,0.00,,,-99.99,,2013-01-17 11:52:00,
2013-01-17 05:02:00,8.0,6.0,-100.00,SW,220,0.0,3.0,91,0.00,,,-99.99,,2013-01-17 12:02:00,
2013-01-17 05:12:00,7.0,5.0,-100.00,South,170,0.0,1.0,91,0.00,,,-99.99,,2013-01-17 12:12:00,
2013-01-17 05:22:00,7.0,5.0,-100.00,West,280,0.0,2.0,91,0.00,,,-99.99,,2013-01-17 12:22:00,
2013-01-17 05:32:00,7.0,5.0,-100.00,WSW,245,1.0,4.0,92,0.00,,,-99.99,,2013-01-17 12:32:00,
2013-01-17 05:42:00,7.0,5.0,-100.00,West,270,0.0,2.0,92,0.00,,,-99.99,,2013-01-17 12:42:00,
2013-01-17 05:52:00,7.0,5.0,-100.00,SW,225,1.0,2.0,92,0.00,,,-99.99,,2013-01-17 12:52:00,
2013-01-17 06:02:00,6.0,5.0,-100.00,SW,220,0.0,2.0,92,0.00,,,-99.99,,2013-01-17 13:02:00,
2013-01-17 06:12:00,7.0,5.0,-100.00,South,190,0.0,4.0,92,0.00,,,-99.99,,2013-01-17 13:12:00,
2013-01-17 06:22:00,7.0,6.0,-100.00,NW,320,1.0,4.0,92,0.00,,,-99.99,,2013-01-17 13:22:00,
2013-01-17 06:33:00,7.0,5.0,-100.00,SSE,155,1.0,2.0,92,0.00,,,-99.99,,2013-01-17 13:33:00,
2013-01-17 06:42:00,7.0,5.0,-100.00,WSW,255,1.0,2.0,92,0.00,,,-99.99,,2013-01-17 13:42:00,
2013-01-17 06:53:00,7.0,5.0,-100.00,NNW,340,1.0,2.0,92,0.00,,,-99.99,,2013-01-17 13:53:00,
2013-01-17 07:02:00,6.0,5.0,-100.00,SSW,210,1.0,2.0,92,0.00,,,-99.99,,2013-01-17 14:02:00,
2013-01-17 07:12:00,6.0,4.0,-100.00,South,190,2.0,4.0,92,0.00,,,-99.99,,2013-01-17 14:12:00,
2013-01-17 07:22:00,6.0,4.0,-100.00,NNE,25,1.0,4.0,92,0.00,,,-99.99,,2013-01-17 14:22:00,
2013-01-17 07:32:00,6.0,4.0,-100.00,SSE,165,0.0,3.0,92,0.00,,,-99.99,,2013-01-17 14:32:00,
2013-01-17 07:42:00,6.0,4.0,-100.00,SSW,195,1.0,4.0,92,0.00,,,-99.99,,2013-01-17 14:42:00,
2013-01-17 07:52:00,6.0,4.0,-100.00,SSW,195,0.0,1.0,92,0.00,,,-99.99,,2013-01-17 14:52:00,
2013-01-17 08:02:00,7.0,5.0,-100.00,SW,220,1.0,4.0,92,0.00,,,-99.99,,2013-01-17 15:02:00,
2013-01-17 08:12:00,7.0,5.0,-100.00,SW,215,2.0,4.0,92,0.00,,,-99.99,,2013-01-17 15:12:00,
2013-01-17 08:22:00,7.0,5.0,-100.00,SSW,205,1.0,4.0,92,0.00,,,-99.99,,2013-01-17 15:22:00,
2013-01-17 08:33:00,7.0,6.0,-100.00,SW,220,2.0,4.0,92,0.00,,,-99.99,,2013-01-17 15:33:00,
2013-01-17 08:43:00,7.0,6.0,-100.00,South,170,1.0,4.0,92,0.00,,,-99.99,,2013-01-17 15:43:00,
2013-01-17 08:52:00,8.0,6.0,-100.00,South,170,0.0,3.0,92,0.00,,,-99.99,,2013-01-17 15:52:00,
2013-01-17 09:02:00,7.0,6.0,-100.00,South,185,1.0,2.0,92,0.00,,,-99.99,,2013-01-17 16:02:00,
2013-01-17 09:12:00,8.0,6.0,-100.00,South,185,1.0,3.0,92,0.00,,,-99.99,,2013-01-17 16:12:00,
2013-01-17 09:22:00,8.0,6.0,-100.00,SE,145,1.0,3.0,92,0.00,,,-99.99,,2013-01-17 16:22:00,
2013-01-17 09:33:00,8.0,7.0,-100.00,South,185,1.0,3.0,92,0.00,,,-99.99,,2013-01-17 16:33:00,
2013-01-17 09:43:00,9.0,7.0,-100.00,WSW,240,0.0,4.0,92,0.00,,,-99.99,,2013-01-17 16:43:00,
2013-01-17 09:52:00,11.0,9.0,-100.00,WNW,285,0.0,1.0,92,0.00,,,-99.99,,2013-01-17 16:52:00,
2013-01-17 10:02:00,12.0,10.0,-100.00,WSW,240,1.0,1.0,92,0.00,,,-99.99,,2013-01-17 17:02:00,
2013-01-17 10:12:00,12.0,11.0,-100.00,South,190,1.0,4.0,92,0.00,,,-99.99,,2013-01-17 17:12:00,
2013-01-17 10:22:00,14.0,12.0,-100.00,South,190,2.0,6.0,92,0.00,,,-99.99,,2013-01-17 17:22:00,
2013-01-17 10:32:00,17.0,15.0,-100.00,SW,220,2.0,3.0,92,0.00,,,-99.99,,2013-01-17 17:32:00,
2013-01-17 10:42:00,18.0,16.0,-100.00,SSW,195,1.0,4.0,91,0.00,,,-99.99,,2013-01-17 17:42:00,
2013-01-17 10:53:00,20.0,17.0,-100.00,SE,140,1.0,3.0,88,0.00,,,-99.99,,2013-01-17 17:53:00,
2013-01-17 11:03:00,21.0,17.0,-100.00,ESE,115,1.0,6.0,84,0.00,,,-99.99,,2013-01-17 18:03:00,
2013-01-17 11:12:00,22.0,16.0,-100.00,WSW,240,1.0,3.0,76,0.00,,,-99.99,,2013-01-17 18:12:00,
2013-01-17 11:22:00,23.0,15.0,-100.00,SE,135,2.0,4.0,70,0.00,,,-99.99,,2013-01-17 18:22:00,
2013-01-17 11:33:00,24.0,14.0,-100.00,South,170,4.0,6.0,63,0.00,,,-99.99,,2013-01-17 18:33:00,
2013-01-17 11:43:00,25.0,13.0,-100.00,South,180,4.0,7.0,58,0.00,,,-99.99,,2013-01-17 18:43:00,
2013-01-17 11:52:00,27.0,13.0,-100.00,SSE,165,4.0,8.0,54,0.00,,,-99.99,,2013-01-17 18:52:00,
2013-01-17 12:02:00,29.0,13.0,-100.00,South,175,5.0,8.0,50,0.00,,,-99.99,,2013-01-17 19:02:00,
2013-01-17 12:12:00,29.0,12.0,-100.00,South,185,4.0,7.0,47,0.00,,,-99.99,,2013-01-17 19:12:00,
2013-01-17 12:22:00,31.0,11.0,-100.00,South,190,6.0,11.0,43,0.00,,,-99.99,,2013-01-17 19:22:00,
2013-01-17 12:32:00,31.0,11.0,-100.00,SSE,165,2.0,8.0,43,0.00,,,-99.99,,2013-01-17 19:32:00,
2013-01-17 12:42:00,32.0,11.0,-100.00,South,175,4.0,9.0,41,0.00,,,-99.99,,2013-01-17 19:42:00,
2013-01-17 12:52:00,33.0,11.0,-100.00,South,185,4.0,9.0,40,0.00,,,-99.99,,2013-01-17 19:52:00,
2013-01-17 13:02:00,34.0,11.0,-100.00,SSE,160,5.0,9.0,38,0.00,,,-99.99,,2013-01-17 20:02:00,
2013-01-17 13:12:00,34.0,11.0,-100.00,South,185,4.0,7.0,37,0.00,,,-99.99,,2013-01-17 20:12:00,
2013-01-17 13:22:00,35.0,11.0,-100.00,South,180,5.0,7.0,36,0.00,,,-99.99,,2013-01-17 20:22:00,
2013-01-17 13:33:00,35.0,11.0,-100.00,SE,145,4.0,7.0,36,0.00,,,-99.99,,2013-01-17 20:33:00,
2013-01-17 13:43:00,36.0,11.0,-100.00,North,0,1.0,6.0,35,0.00,,,-99.99,,2013-01-17 20:43:00,
2013-01-17 13:53:00,36.0,11.0,-100.00,SSW,195,1.0,5.0,34,0.00,,,-99.99,,2013-01-17 20:53:00,
2013-01-17 14:02:00,36.0,10.0,-100.00,WNW,285,1.0,4.0,34,0.00,,,-99.99,,2013-01-17 21:02:00,
2013-01-17 14:12:00,36.0,11.0,-100.00,SSW,200,1.0,4.0,34,0.00,,,-99.99,,2013-01-17 21:12:00,
2013-01-17 14:22:00,36.0,10.0,-100.00,WNW,300,1.0,3.0,34,0.00,,,-99.99,,2013-01-17 21:22:00,
2013-01-17 14:33:00,37.0,12.0,-100.00,South,170,2.0,4.0,34,0.00,,,-99.99,,2013-01-17 21:33:00,
2013-01-17 14:42:00,38.0,12.0,-100.00,WNW,295,2.0,3.0,33,0.00,,,-99.99,,2013-01-17 21:42:00,
2013-01-17 14:52:00,37.0,11.0,-100.00,NNW,340,1.0,4.0,32,0.00,,,-99.99,,2013-01-17 21:52:00,
2013-01-17 15:02:00,38.0,11.0,-100.00,SSE,165,1.0,3.0,32,0.00,,,-99.99,,2013-01-17 22:02:00,
2013-01-17 15:11:00,35.0,9.0,-100.00,NW,320,2.0,3.0,33,0.00,,,-99.99,,2013-01-17 22:11:00,
2013-01-17 15:22:00,34.0,9.0,-100.00,WSW,250,2.0,5.0,35,0.00,,,-99.99,,2013-01-17 22:22:00,
2013-01-17 15:32:00,33.0,10.0,-100.00,SSW,205,0.0,4.0,36,0.00,,,-99.99,,2013-01-17 22:32:00,
2013-01-17 15:42:00,33.0,10.0,-100.00,SW,225,1.0,5.0,38,0.00,,,-99.99,,2013-01-17 22:42:00,
2013-01-17 15:52:00,32.0,10.0,-100.00,North,5,2.0,6.0,39,0.00,,,-99.99,,2013-01-17 22:52:00,
2013-01-17 16:02:00,32.0,10.0,-100.00,North,0,4.0,4.0,39,0.00,,,-99.99,,2013-01-17 23:02:00,
2013-01-17 16:12:00,32.0,11.0,-100.00,North,0,1.0,4.0,40,0.00,,,-99.99,,2013-01-17 23:12:00,
2013-01-17 16:22:00,32.0,11.0,-100.00,North,-999,-999.0,-999.0,40,-99.99,,,-99.99,,2013-01-17 23:22:00,
2013-01-17 16:32:00,32.0,11.0,-100.00,North,0,1.0,4.0,41,0.00,,,-99.99,,2013-01-17 23:32:00,
2013-01-17 16:42:00,30.0,10.0,-100.00,ESE,120,0.0,1.0,42,0.00,,,-99.99,,2013-01-17 23:42:00,
2013-01-17 16:52:00,29.0,10.0,-100.00,North,0,0.0,3.0,43,0.00,,,-99.99,,2013-01-17 23:52:00,
2013-01-17 17:02:00,29.0,10.0,-100.00,NW,315,1.0,3.0,45,0.00,,,-99.99,,2013-01-18 00:02:00,
2013-01-17 17:12:00,28.0,10.0,-100.00,SW,215,0.0,1.0,46,0.00,,,-99.99,,2013-01-18 00:12:00,
2013-01-17 17:22:00,28.0,11.0,-100.00,NNW,340,1.0,4.0,49,0.00,,,-99.99,,2013-01-18 00:22:00,
2013-01-17 17:32:00,27.0,11.0,-100.00,NW,315,0.0,2.0,49,0.00,,,-99.99,,2013-01-18 00:32:00,
2013-01-17 17:42:00,26.0,10.0,-100.00,South,185,0.0,1.0,51,0.00,,,-99.99,,2013-01-18 00:42:00,
2013-01-17 17:52:00,25.0,10.0,-100.00,NNE,20,0.0,1.0,52,0.00,,,-99.99,,2013-01-18 00:52:00,
2013-01-17 18:02:00,26.0,12.0,-100.00,NNW,335,1.0,4.0,54,0.00,,,-99.99,,2013-01-18 01:02:00,
2013-01-17 18:11:00,25.0,12.0,-100.00,NNW,340,0.0,4.0,56,0.00,,,-99.99,,2013-01-18 01:11:00,
2013-01-17 18:22:00,24.0,11.0,-100.00,North,0,0.0,2.0,57,0.00,,,-99.99,,2013-01-18 01:22:00,
2013-01-17 18:32:00,23.0,11.0,-100.00,West,270,0.0,1.0,58,0.00,,,-99.99,,2013-01-18 01:32:00,
2013-01-17 18:42:00,23.0,11.0,-100.00,NW,320,1.0,3.0,60,0.00,,,-99.99,,2013-01-18 01:42:00,
2013-01-17 18:52:00,22.0,11.0,-100.00,WSW,255,0.0,3.0,61,0.00,,,-99.99,,2013-01-18 01:52:00,
2013-01-17 19:02:00,22.0,11.0,-100.00,NW,305,0.0,2.0,63,0.00,,,-99.99,,2013-01-18 02:02:00,
2013-01-17 19:12:00,22.0,12.0,-100.00,North,0,1.0,3.0,65,0.00,,,-99.99,,2013-01-18 02:12:00,
2013-01-17 19:22:00,22.0,12.0,-100.00,NW,315,0.0,2.0,66,0.00,,,-99.99,,2013-01-18 02:22:00,
2013-01-17 19:32:00,21.0,12.0,-100.00,NW,320,0.0,3.0,67,0.00,,,-99.99,,2013-01-18 02:32:00,
2013-01-17 19:42:00,22.0,13.0,-100.00,NW,320,1.0,4.0,69,0.00,,,-99.99,,2013-01-18 02:42:00,
2013-01-17 19:53:00,20.0,12.0,-100.00,SW,220,0.0,1.0,69,0.00,,,-99.99,,2013-01-18 02:53:00,
2013-01-17 20:02:00,20.0,12.0,-100.00,NW,320,1.0,4.0,71,0.00,,,-99.99,,2013-01-18 03:02:00,
2013-01-17 20:12:00,20.0,12.0,-100.00,NNE,15,0.0,3.0,72,0.00,,,-99.99,,2013-01-18 03:12:00,
2013-01-17 20:22:00,19.0,12.0,-100.00,NNW,335,1.0,2.0,72,0.00,,,-99.99,,2013-01-18 03:22:00,
2013-01-17 20:32:00,19.0,12.0,-100.00,North,355,0.0,1.0,74,0.00,,,-99.99,,2013-01-18 03:32:00,
2013-01-17 20:42:00,18.0,11.0,-100.00,WNW,300,0.0,1.0,74,0.00,,,-99.99,,2013-01-18 03:42:00,
2013-01-17 20:52:00,18.0,12.0,-100.00,NW,315,0.0,2.0,76,0.00,,,-99.99,,2013-01-18 03:52:00,
2013-01-17 21:02:00,17.0,11.0,-100.00,ESE,110,0.0,1.0,76,0.00,,,-99.99,,2013-01-18 04:02:00,
2013-01-17 21:12:00,17.0,11.0,-100.00,East,80,0.0,1.0,78,0.00,,,-99.99,,2013-01-18 04:12:00,
2013-01-17 21:22:00,18.0,13.0,-100.00,NE,45,1.0,3.0,79,0.00,,,-99.99,,2013-01-18 04:22:00,
2013-01-17 21:32:00,17.0,11.0,-100.00,NNE,25,0.0,2.0,79,0.00,,,-99.99,,2013-01-18 04:32:00,
2013-01-17 21:42:00,16.0,11.0,-100.00,ENE,65,0.0,0.0,80,0.00,,,-99.99,,2013-01-18 04:42:00,
2013-01-17 21:52:00,16.0,11.0,-100.00,NNW,345,0.0,1.0,81,0.00,,,-99.99,,2013-01-18 04:52:00,
2013-01-17 22:03:00,16.0,12.0,-100.00,ENE,75,0.0,4.0,81,0.00,,,-99.99,,2013-01-18 05:03:00,
2013-01-17 22:12:00,16.0,11.0,-100.00,NE,45,1.0,2.0,82,0.00,,,-99.99,,2013-01-18 05:12:00,
2013-01-17 22:22:00,15.0,11.0,-100.00,SSW,200,0.0,2.0,83,0.00,,,-99.99,,2013-01-18 05:22:00,
2013-01-17 22:32:00,15.0,11.0,-100.00,ESE,120,0.0,2.0,83,0.00,,,-99.99,,2013-01-18 05:32:00,
2013-01-17 22:42:00,15.0,11.0,-100.00,NNW,345,0.0,1.0,84,0.00,,,-99.99,,2013-01-18 05:42:00,
2013-01-17 22:52:00,15.0,11.0,-100.00,NNW,345,0.0,0.0,85,0.00,,,-99.99,,2013-01-18 05:52:00,
2013-01-17 23:02:00,14.0,11.0,-100.00,North,350,0.0,0.0,85,0.00,,,-99.99,,2013-01-18 06:02:00,
2013-01-17 23:12:00,15.0,11.0,-100.00,North,5,0.0,2.0,85,0.00,,,-99.99,,2013-01-18 06:12:00,
2013-01-17 23:22:00,14.0,10.0,-100.00,North,5,0.0,0.0,85,0.00,,,-99.99,,2013-01-18 06:22:00,
2013-01-17 23:32:00,14.0,10.0,-100.00,North,5,0.0,2.0,86,0.00,,,-99.99,,2013-01-18 06:32:00,
2013-01-17 23:42:00,14.0,11.0,-100.00,ENE,60,0.0,2.0,87,0.00,,,-99.99,,2013-01-18 06:42:00,
2013-01-17 23:52:00,14.0,11.0,-100.00,NNE,20,0.0,1.0,87,0.00,,,-99.99,,2013-01-18 06:52:00,